Location: Steilacoom
(47.1700°N, 122.5700°W)
Time: 15:50:05
(UTC-08:00)

ISS - Pass Details

Date: 24 November 2019
Orbit: 411 x 421 km, 51.6° (Epoch: 13 December)

Event Time Altitude Azimuth Distance (km) Brightness Sun altitude
Rises 17:05:56 0° 203° (SSW) 2,341 0.8 -6.8°
Reaches altitude 10° 17:08:23 10° 185° (S) 1,485 -0.6 -7.2°
Maximum altitude 17:10:50 19° 138° (SE) 1,057 -1.9 -7.5°
Drops below altitude 10° 17:13:18 10° 90° (E) 1,498 -1.5 -7.9°
Enters shadow 17:13:29 - 88° (E) 1,550 -1.5 -8.0°
